Lid_Strength_Index
4 4 4 4 5 6 7 8 10 6 5 10 10 12 11 10 10 8 9 10 11 12 12 15 15 15 13 10 11 13 12 15 19 16 13 12 13 14 14 21 19 19 19 20
6 5 4 4 5 7 8 10 10 6 7 12 13 12 11 10 11 10 11 11 10 10 12 15 13 13 10 11 12 13 13 17 21 19 17 14 16 14 14 15 15 21 23 20
6 6 5 5 5 7 9 10 13 10 9 11 12 13 13 12 10 10 10 11 11 12 13 12 14 13 11 11 11 10 12 15 18 21 19 17 18 15 14 16 18 21 19 19
7 7 6 5 5 7 9 11 13 13 13 13 13 13 13 13 13 11 10 12 12 13 15 13 14 13 12 11 11 12 13 18 16 16 15 14 15 15 15 17 17 21 20 18
7 7 7 6 5 6 9 12 13 13 14 13 13 14 14 14 13 13 13 13 11 12 14 14 15 13 14 14 13 16 13 18 16 18 15 15 16 15 14 14 14 15 14 15
5 7 7 7 7 7 9 11 11 13 14 14 15 15 15 14 13 12 12 12 13 13 12 11 12 12 12 12 14 14 15 17 18 22 16 16 19 15 15 14 13 14 16 13
4 6 7 7 7 8 10 11 11 13 16 16 15 14 14 14 14 14 12 12 13 12 10 11 11 13 13 13 13 12 15 16 17 20 18 24 16 12 12 13 13 12 12 12
4 5 7 8 7 8 9 11 12 13 15 14 15 14 15 14 14 15 14 12 12 11 13 15 16 16 15 14 14 14 13 16 19 21 22 18 15 14 15 16 15 12 13 12
3 4 6 7 8 8 9 11 11 12 15 15 14 15 15 16 16 16 15 13 12 13 14 16 19 20 18 18 17 14 13 14 17 18 22 22 16 13 11 12 18 12 12 13
3 4 5 6 7 8 9 10 11 12 15 13 14 16 15 15 17 17 16 15 15 13 16 18 19 19 16 20 19 19 17 17 18 19 20 18 14 12 11 19 17 11 11 12
3 3 4 6 7 7 9 10 10 12 14 13 14 13 15 16 16 17 15 16 16 16 18 18 17 18 17 18 17 18 19 20 20 19 20 22 12 12 15 13 12 12 12 11
3 3 4 5 6 7 8 11 11 11 14 13 12 12 12 13 14 14 15 15 15 15 17 17 17 18 17 18 20 15 19 16 17 17 17 13 11 12 10 10 10 11 12 12
4 3 4 4 5 7 7 10 12 12 13 13 14 14 12 12 14 13 16 15 14 15 14 15 16 19 17 19 18 18 16 14 17 16 14 13 11 11 10 11 11 11 11 11
4 3 3 4 5 6 7 10 11 12 13 17 15 13 15 14 13 13 14 15 14 14 15 17 17 18 16 18 17 17 15 16 16 16 14 13 12 11 11 11 11 11 10 10
4 4 4 4 4 5 7 8 10 10 13 16 16 13 14 14 14 14 14 15 16 16 18 18 18 17 17 17 17 17 15 15 17 16 13 13 14 13 12 13 12 11 11 12
4 4 4 4 5 6 9 12 9 9 11 16 18 15 16 16 15 15 15 15 16 16 17 17 16 15 17 19 20 16 15 13 12 13 13 13 14 13 12 12 12 12 12 12
4 5 5 5 5 8 11 12 10 9 10 15 17 17 17 15 16 16 16 15 16 17 17 18 18 18 17 19 20 15 14 13 13 12 12 14 14 14 12 12 12 11 12 12
4 5 5 5 6 8 10 9 8 9 12 15 18 17 19 16 18 18 15 17 17 18 18 18 19 18 18 20 17 15 15 14 14 14 13 13 14 14 13 13 13 13 13 13
5 5 5 7 10 12 11 8 8 10 12 17 18 18 17 17 17 17 17 16 19 17 19 19 19 20 21 18 17 16 16 16 16 15 14 14 15 14 14 14 14 14 14 13
5 7 9 14 11 8 9 11 14 14 14 15 18 16 18 18 19 19 18 17 19 20 19 19 19 20 16 15 14 14 15 14 14 16 16 16 15 15 15 15 15 14 14 14
8 11 13 10 8 11 12 16 17 17 18 17 17 16 16 16 18 18 16 18 18 22 20 21 21 21 18 15 15 14 14 14 13 14 14 14 14 15 15 15 15 15 14 14
7 9 9 10 13 15 16 17 16 17 19 17 17 16 15 17 15 16 17 18 18 22 19 21 23 19 15 15 15 14 15 15 14 13 13 14 14 15 15 15 15 15 14 14
7 10 13 14 15 18 19 19 18 18 17 17 16 17 17 16 15 16 17 19 20 18 21 22 21 16 15 15 15 15 15 15 14 14 14 14 15 15 15 15 14 14 14 14
9 12 14 14 16 16 16 17 17 15 16 14 14 17 16 15 16 15 18 16 17 22 22 23 16 15 14 14 14 15 15 14 15 14 14 14 15 15 15 14 14 14 14 14
10 10 13 15 14 13 14 13 14 14 12 12 13 13 13 14 15 15 15 18 20 20 21 17 14 13 13 14 15 14 14 15 15 15 15 15 15 15 15 15 14 14 14 15
9 10 13 12 12 12 13 13 13 11 10 10 11 12 14 14 14 15 16 17 20 18 15 13 12 12 13 14 14 13 13 14 14 14 14 14 14 14 14 16 16 15 15 16
10 12 10 10 10 10 11 11 10 7 10 12 11 14 15 12 14 15 14 17 14 12 12 12 12 11 11 10 11 12 12 13 14 13 14 13 13 14 15 16 14 15 15 15